カタログに戻る

STARLINK-4773

運用中通信VLEO
NORAD 53838·PAYLOAD·🇺🇸 United States

打ち上げ Sep 19, 2022 から Cape Canaveral Space Force Station

Loading…

次のパス (今後24時間)

TLE

最新Source: CelesTrak SupGP

元期: Sep 15, 2026, 02:17 UTC

1 53838C 22114W   26258.09562500  .00012150  00000+0  76208-3 0  2589
2 53838  53.1587 163.3872 0001620  84.2665 256.3641 15.08822165    14

AllMySatでSTARLINK-4773をリアルタイム追跡

Download on the App Store